User: anonymous   Login
Location: Caltech
(34.1382°N, 118.1253°W)
Time: 07:50:35
(UTC-07:00)
Language:

PANSAT - Orbit

View from above orbital plane
View from above orbital plane
View from above satellite
View from above satellite

Ground track
Ground track

The orbit data is extracted from the following two-line orbital elements,

1 25520U 98064B   15244.02618551  .00001764  00000-0  57429-4 0  9994
2 25520  28.4570 121.9375 0005107 310.9384 184.8149 15.26576553934007
Epoch (UTC): 01 September 2015 00:37:42
Eccentricity: 0.0005107
inclination: 28.4570°
perigee height: 482 km
apogee height: 489 km
right ascension of ascending node: 121.9375°
argument of perigee: 310.9384°
revolutions per day: 15.26576553
mean anomaly at epoch: 184.8149°
orbit number at epoch: 93400

The dashed part of the orbit path shows where the satellite is in the earth's shadow,  

DLR